Flag for U.S.A. Weather past 2 weeks in Peoria, Illinois, U.S.A.

Now
50 °F

Clear.


Feels Like: 49 °F
Forecast: 42 / 72 °F
Wind: 3 mph from Southeast

Location: Greater Peoria Regional Airport

Current Time: Apr 1, 2015 at 3:15:25 AM

Latest Report: Apr 1, 2015 at 2:54 AM


Visibility: 10 mi

Pressure: 29.96 "Hg

Humidity: 57%

Dew point: 35 °F

Location of PeoriaLocation

Historic Weather in Peoria — Graph

°F

Peoria temperature yesterday

Maximum temperature yesterday: 70 °F (at 2:54 PM)
Minimum temperature yesterday: 49 °F (at 6:54 AM)
Average temperature yesterday: 59 °F

Past Weeks' High & Low Weather Summary

 TemperatureHumidityPressure
High71 °F (Mar 30, 3:54 PM)97% (Mar 21, 6:54 AM)30.37 "Hg (Mar 21, 6:54 AM)
Low23 °F (Mar 28, 3:54 AM)20% (Mar 30, 3:54 PM)29.80 "Hg (Mar 31, 2:54 AM)
Average43 °F57%30.13 "Hg
* Reported Mar 17 1:54 AM — Apr 1 1:54 AM, Peoria, Weather by CustomWeather, © 2015

Note: Actual official high and low records may vary slightly from our data, if they occured in-between our weather recording intervals... More about our weather records

Advertising

Peoria weather history for previous 24 hours

 ConditionsComfort  
Time TempWeatherWind HumidityBarometerVisibility
1:54 AM
Wed, Apr 1
51 °FClear.6 mph54%29.97 "Hg10 mi
12:54 AM53 °FClear.6 mph51%29.97 "Hg10 mi
11:54 PM
Tue, Mar 31
54 °FClear.3 mph47%29.98 "Hg10 mi
10:54 PM53 °FClear.3 mph43%29.98 "Hg10 mi
9:54 PM53 °FClear.No wind43%29.97 "Hg10 mi
8:54 PM56 °FClear.No wind39%29.95 "Hg10 mi
7:54 PM62 °FSunny.No wind29%29.93 "Hg10 mi
6:54 PM68 °FSunny.No wind23%29.92 "Hg10 mi
5:54 PM69 °FSunny.7 mph22%29.92 "Hg10 mi
4:54 PM70 °FSunny.9 mph23%29.91 "Hg10 mi
3:54 PM69 °FSunny.12 mph25%29.92 "Hg10 mi
2:54 PM70 °FSunny.9 mph26%29.93 "Hg10 mi
1:54 PM68 °FSunny.13 mph30%29.94 "Hg10 mi
12:54 PM65 °FSunny.13 mph34%29.95 "Hg10 mi
11:54 AM63 °FSunny.10 mph35%29.96 "Hg10 mi
10:54 AM60 °FSunny.7 mph41%29.96 "Hg10 mi
9:54 AM56 °FSunny.8 mph47%29.94 "Hg10 mi
8:54 AM53 °FSunny.12 mph52%29.92 "Hg10 mi
7:54 AM51 °FSunny.7 mph54%29.90 "Hg10 mi
6:54 AM49 °FClear.6 mph57%29.87 "Hg10 mi
5:54 AM52 °FClear.8 mph50%29.84 "Hg10 mi
4:54 AM54 °FClear.10 mph47%29.81 "Hg10 mi
3:54 AM56 °FClear.12 mph44%29.80 "Hg10 mi
Weather by CustomWeather, © 2015

See weather overviewHow to use our weather pages